Regional Weather Roundup
Issued by NWS Tiyan, Guam

Home | Current Version | Previous Version | Text Only | Print | Product List | Glossary On
Versions: 1 2 3 4 5 6 7 8 9 10 11 12 13 14 15 16 17 18 19 20 21 22 23 24 25 26 27 28 29 30 31 32 33 34 35 36 37 38 39 40 41 42 43 44 45 46 47 48 49 50
000
ASGM40 PGUM 250012
RWRGUM
WEATHER ROUNDUP FOR THE MARIANAS
NATIONAL WEATHER SERVICE TIYAN GU
1000 AM CHST WED JAN 25 2017

GUZ001>004-250100-
MARIANA ISLANDS-

CITY           SKY/WX    TMP DP  RH WIND       PRES   REMARKS
GUAM AIRPORT   LGT RAIN  81  75  83 NE14G23   30.00S
ANDERSEN AFB   MOSUNNY   79  73  83 NE21G26   30.01S
ROTA AIRPORT   PTSUNNY   77  72  83 NE15G25   30.02R
TINIAN AP      PTSUNNY   81  72  74 NE22      30.00F
SAIPAN AP      LGT RAIN  79  72  78 NE22G28   30.01S

$$




USA.gov is the U.S. government's official web portal to all federal, state and local government web resources and services.